Llano, TX

6:55 AM CST on February 24, 2017 (GMT -0600)
Llano

Weather History for KAQO - April, 2013

Change the Weather History Date:

Wednesday, April 10, 2013

  Actual Average (KBMQ) Record (KBMQ)
Temperature  
Mean Temperature 58 °F -  
Max Temperature 75 °F 73 °F 88 °F (2011)
Min Temperature 41 °F 51 °F 39 °F (2003)
Degree Days  
Heating Degree Days 7    
Growing Degree Days 8 (Base 50)    
Moisture  
Dew Point 43 °F    
Average Humidity 72    
Maximum Humidity 87    
Minimum Humidity 54    
Precipitation  
Precipitation 0.00 in - - ()
Sea Level Pressure  
Sea Level Pressure 29.91 in    
Wind  
Wind Speed 12 mph (North)    
Max Wind Speed 21 mph    
Max Gust Speed 28 mph    
Visibility 10 miles    
Events Rain    
Averages and records for this station are not official NWS values.
T = Trace of Precipitation, MM = Missing Value Source: NWS Daily Summary

Daily Weather History Graph

Daily Weather History Graph

Search for Another Location

Airport or City:

Trip Planner

Search our weather history database for the weather conditions in past years. The results will help you decide how hot, cold, wet, or windy it might be!

Date:

Astronomy

Apr. 10, 2013 Rise Set
Actual Time 7:12 AM CDT 7:59 PM CDT
Civil Twilight 6:47 AM CDT 8:24 PM CDT
Nautical Twilight 6:19 AM CDT 8:53 PM CDT
Astronomical Twilight 5:49 AM CDT 9:22 PM CDT
Moon 7:11 AM CDT (4/10) 8:32 PM CDT (4/10)
Length of Visible Light 13h 36m
Length of Day
12h 47m
New Moon, 0% of the Moon is Illuminated
Apr 10
New Moon
Apr 18
First Quarter
Apr 25
Full
May 2
Last Quarter
May 9
New

Hourly Weather History & Observations

Time (CDT) Temp. Windchill Dew Point Humidity Pressure Visibility Wind Dir Wind Speed Gust Speed Precip Events Conditions
12:15 AM 73.4 °F - 66.2 °F 78% 29.68 in 8.0 mi SE 16.1 mph 26.5 mph N/A   Overcast
12:55 AM 73.4 °F - 66.2 °F 78% 29.69 in 7.0 mi SSE 11.5 mph 20.7 mph N/A   Overcast
1:15 AM 73.4 °F - 66.2 °F 78% 29.68 in 7.0 mi SE 11.5 mph 23.0 mph N/A   Mostly Cloudy
1:35 AM 73.4 °F - 66.2 °F 78% 29.69 in 6.0 mi SSE 16.1 mph 24.2 mph N/A   Haze
1:55 AM 73.4 °F - 66.2 °F 78% 29.69 in 6.0 mi SSE 13.8 mph 21.9 mph N/A   Haze
2:15 AM 73.4 °F - 66.2 °F 78% 29.71 in 7.0 mi SSE 6.9 mph - N/A   Overcast
2:35 AM 75.2 °F - 66.2 °F 73% 29.73 in 7.0 mi South 4.6 mph - N/A   Overcast
2:55 AM 75.2 °F - 66.2 °F 73% 29.73 in 8.0 mi SW 5.8 mph - N/A   Overcast
3:15 AM 75.2 °F - 64.4 °F 69% 29.73 in 10.0 mi South 9.2 mph - N/A   Overcast
3:35 AM 75.2 °F - 66.2 °F 73% 29.74 in 9.0 mi South 6.9 mph - N/A   Mostly Cloudy
3:55 AM 75.2 °F - 64.4 °F 69% 29.75 in 10.0 mi SSW 6.9 mph - N/A   Mostly Cloudy
4:15 AM 55.4 °F - 44.6 °F 67% 29.78 in 10.0 mi North 19.6 mph 27.6 mph N/A   Light Drizzle
4:35 AM 51.8 °F - 41.0 °F 67% 29.81 in 10.0 mi NNW 20.7 mph 26.5 mph N/A   Mostly Cloudy
4:55 AM 48.2 °F - 39.2 °F 71% 29.84 in 10.0 mi NNW 20.7 mph 26.5 mph N/A   Mostly Cloudy
5:15 AM 46.4 °F 39.5 °F 39.2 °F 76% 29.85 in 10.0 mi North 17.3 mph 20.7 mph N/A   Mostly Cloudy
5:35 AM 46.4 °F 40.4 °F 39.2 °F 76% 29.86 in 10.0 mi NNW 13.8 mph 23.0 mph N/A   Overcast
5:55 AM 44.6 °F 38.1 °F 39.2 °F 81% 29.88 in 10.0 mi NNW 13.8 mph - N/A   Overcast
6:15 AM 44.6 °F 38.1 °F 39.2 °F 81% 29.88 in 10.0 mi North 13.8 mph 19.6 mph N/A   Overcast
6:35 AM 44.6 °F 38.1 °F 37.4 °F 76% 29.89 in 10.0 mi NNW 13.8 mph - N/A   Overcast
6:55 AM 44.6 °F 37.2 °F 37.4 °F 76% 29.89 in 10.0 mi North 17.3 mph 21.9 mph N/A   Overcast
7:15 AM 44.6 °F 38.4 °F 37.4 °F 76% 29.90 in 10.0 mi North 12.7 mph - N/A   Overcast
7:35 AM 44.6 °F 37.8 °F 37.4 °F 76% 29.92 in 10.0 mi North 15.0 mph - N/A   Overcast
7:55 AM 44.6 °F 38.4 °F 39.2 °F 81% 29.93 in 10.0 mi NNW 12.7 mph 20.7 mph N/A   Overcast
8:15 AM 42.8 °F 36.2 °F 39.2 °F 87% 29.94 in 4.0 mi North 12.7 mph 21.9 mph N/A Rain Light Rain
8:35 AM 42.8 °F 36.6 °F 39.2 °F 87% 29.95 in 3.0 mi NNW 11.5 mph - N/A   Light Drizzle
8:55 AM 42.8 °F 36.2 °F 37.4 °F 81% 29.96 in 10.0 mi NNW 12.7 mph - N/A   Overcast
9:15 AM 42.8 °F 36.6 °F 37.4 °F 81% 29.97 in 10.0 mi North 11.5 mph 25.3 mph N/A   Overcast
9:35 AM 42.8 °F 35.4 °F 37.4 °F 81% 29.97 in 10.0 mi North 15.0 mph - N/A   Overcast
9:55 AM 42.8 °F 35.8 °F 37.4 °F 81% 29.98 in 10.0 mi NNW 13.8 mph 23.0 mph N/A   Overcast
10:15 AM 42.8 °F 37.5 °F 37.4 °F 81% 29.99 in 10.0 mi NW 9.2 mph - N/A   Overcast
10:35 AM 42.8 °F 36.6 °F 37.4 °F 81% 30.00 in 10.0 mi NNW 11.5 mph - N/A   Overcast
10:55 AM 42.8 °F 35.4 °F 37.4 °F 81% 30.01 in 10.0 mi NNW 15.0 mph - N/A   Overcast
11:15 AM 42.8 °F 35.1 °F 37.4 °F 81% 30.02 in 10.0 mi NW 16.1 mph 23.0 mph N/A   Overcast
11:35 AM 41.0 °F 33.5 °F 35.6 °F 81% 30.02 in 10.0 mi NNW 13.8 mph - N/A   Overcast
11:55 AM 42.8 °F 35.4 °F 35.6 °F 76% 30.02 in 10.0 mi NNW 15.0 mph - N/A   Overcast
12:15 PM 42.8 °F 35.1 °F 35.6 °F 76% 30.01 in 10.0 mi North 16.1 mph - N/A   Overcast
12:35 PM 44.6 °F 37.8 °F 37.4 °F 76% 30.01 in 10.0 mi NNW 15.0 mph 20.7 mph N/A   Overcast
12:55 PM 46.4 °F 40.4 °F 37.4 °F 71% 29.99 in 10.0 mi North 13.8 mph - N/A   Mostly Cloudy
1:15 PM 46.4 °F 41.1 °F 37.4 °F 71% 29.98 in 10.0 mi NNW 11.5 mph - N/A   Mostly Cloudy
1:35 PM 48.2 °F - 37.4 °F 66% 29.98 in 10.0 mi NNW 11.5 mph - N/A   Mostly Cloudy
1:55 PM 48.2 °F - 39.2 °F 71% 29.97 in 10.0 mi North 12.7 mph 17.3 mph N/A   Mostly Cloudy
2:15 PM 50.0 °F - 39.2 °F 66% 29.97 in 10.0 mi North 12.7 mph 17.3 mph N/A   Scattered Clouds
2:35 PM 51.8 °F - 39.2 °F 62% 29.96 in 10.0 mi NNE 11.5 mph 18.4 mph N/A   Scattered Clouds
2:55 PM 53.6 °F - 41.0 °F 62% 29.95 in 10.0 mi North 15.0 mph - N/A   Scattered Clouds
3:15 PM 53.6 °F - 41.0 °F 62% 29.96 in 10.0 mi North 16.1 mph - N/A   Partly Cloudy
3:35 PM 53.6 °F - 41.0 °F 62% 29.95 in 10.0 mi North 12.7 mph 20.7 mph N/A   Scattered Clouds
3:55 PM 55.4 °F - 41.0 °F 58% 29.95 in 10.0 mi North 12.7 mph 17.3 mph N/A   Partly Cloudy
4:15 PM 55.4 °F - 41.0 °F 58% 29.93 in 10.0 mi North 13.8 mph 18.4 mph N/A   Clear
4:35 PM 55.4 °F - 42.8 °F 63% 29.93 in 10.0 mi North 12.7 mph 17.3 mph N/A   Partly Cloudy
4:55 PM 57.2 °F - 42.8 °F 59% 29.92 in 10.0 mi North 10.4 mph 19.6 mph N/A   Clear
5:15 PM 57.2 °F - 42.8 °F 59% 29.91 in 10.0 mi NNE 13.8 mph 17.3 mph N/A   Clear
5:35 PM 57.2 °F - 42.8 °F 59% 29.91 in 10.0 mi North 11.5 mph - N/A   Clear
5:55 PM 57.2 °F - 42.8 °F 59% 29.90 in 10.0 mi NNE 11.5 mph 19.6 mph N/A   Clear
6:15 PM 57.2 °F - 41.0 °F 55% 29.91 in 10.0 mi North 10.4 mph 21.9 mph N/A   Clear
6:35 PM 55.4 °F - 39.2 °F 54% 29.93 in 10.0 mi North 10.4 mph - N/A   Clear
6:55 PM 55.4 °F - 41.0 °F 58% 29.94 in 10.0 mi North 10.4 mph - N/A   Clear
7:15 PM 55.4 °F - 41.0 °F 58% 29.94 in 10.0 mi North 11.5 mph - N/A   Clear
7:35 PM 53.6 °F - 39.2 °F 58% 29.95 in 10.0 mi North 10.4 mph - N/A   Clear
7:55 PM 51.8 °F - 39.2 °F 62% 29.94 in 10.0 mi North 11.5 mph - N/A   Clear
8:15 PM 51.8 °F - 39.2 °F 62% 29.94 in 10.0 mi North 6.9 mph - N/A   Clear
8:35 PM 50.0 °F - 39.2 °F 66% 29.96 in 10.0 mi North 9.2 mph - N/A   Clear
8:55 PM 48.2 °F - 39.2 °F 71% 29.96 in 10.0 mi North 6.9 mph - N/A   Clear
9:15 PM 48.2 °F - 39.2 °F 71% 29.97 in 10.0 mi Calm Calm - N/A   Clear
9:35 PM 46.4 °F - 39.2 °F 76% 29.98 in 10.0 mi Calm Calm - N/A   Clear
9:55 PM 46.4 °F - 39.2 °F 76% 29.99 in 10.0 mi Calm Calm - N/A   Clear
10:15 PM 46.4 °F - 39.2 °F 76% 30.00 in 10.0 mi Calm Calm - N/A   Clear
10:35 PM 46.4 °F - 39.2 °F 76% 30.01 in 10.0 mi Calm Calm - N/A   Clear
10:55 PM 46.4 °F - 39.2 °F 76% 30.01 in 10.0 mi Calm Calm - N/A   Clear
11:15 PM 46.4 °F 45.2 °F 39.2 °F 76% 30.02 in 10.0 mi North 3.5 mph - N/A   Clear
11:35 PM 46.4 °F - 37.4 °F 71% 30.03 in 10.0 mi Calm Calm - N/A   Clear
11:55 PM 46.4 °F - 37.4 °F 71% 30.02 in 10.0 mi Calm Calm - N/A   Clear